| time (UTC) | temp C | wind direction | speed KPH | gust KPH | rain 1hr cm | rain 24hr cm | rain mn cm | humidity % | barometer mb |
| 20260507160107 | 16 | 0 | 0.0 | 6.4 | 0.00 | 0.05 | 0.00 | 87 | 1015.6 |
| 20260507154539 | 16 | 5 | 1.6 | 6.4 | 0.00 | 0.05 | 0.00 | 88 | 1015.8 |
| 20260507153039 | 15 | 0 | 0.0 | 4.8 | 0.00 | 0.05 | 0.00 | 90 | 1015.7 |
| 20260507151539 | 15 | 106 | 0.0 | 4.8 | 0.00 | 0.05 | 0.00 | 92 | 1015.7 |
| 20260507150043 | 15 | 0 | 0.0 | 3.2 | 0.00 | 0.05 | 0.00 | 93 | 1015.6 |
| 20260507144540 | 15 | 0 | 0.0 | 3.2 | 0.00 | 0.05 | 0.00 | 94 | 1015.6 |
| 20260507143037 | 14 | 101 | 1.6 | 6.4 | 0.00 | 0.05 | 0.00 | 95 | 1015.4 |
| 20260507141537 | 14 | 90 | 1.6 | 4.8 | 0.00 | 0.05 | 0.00 | 96 | 1015.3 |
| 20260507140047 | 13 | 0 | 0.0 | 3.2 | 0.00 | 0.05 | 0.00 | 96 | 1015.2 |
| 20260507134539 | 13 | 0 | 0.0 | 6.4 | 0.00 | 0.05 | 0.00 | 96 | 1015.2 |
| 20260507133037 | 13 | 95 | 1.6 | 4.8 | 0.00 | 0.05 | 0.00 | 96 | 1015.1 |
| 20260507131607 | 12 | 97 | 1.6 | 4.8 | 0.00 | 0.05 | 0.00 | 96 | 1015.1 |
| 20260507130039 | 12 | 97 | 0.0 | 0.0 | 0.00 | 0.05 | 0.00 | 96 | 1015.0 |
| 20260507124552 | 11 | 97 | 1.6 | 3.2 | 0.00 | 0.08 | 0.00 | 96 | 1014.9 |
| 20260507123045 | 11 | 0 | 1.6 | 4.8 | 0.00 | 0.08 | 0.00 | 96 | 1014.8 |
| 20260507121541 | 11 | 96 | 0.0 | 3.2 | 0.00 | 0.08 | 0.00 | 95 | 1014.8 |
| 20260507120041 | 11 | 97 | 1.6 | 4.8 | 0.00 | 0.08 | 0.00 | 96 | 1014.7 |
| 20260507114534 | 11 | 97 | 1.6 | 3.2 | 0.00 | 0.08 | 0.00 | 95 | 1014.7 |
| 20260507113103 | 11 | 96 | 1.6 | 3.2 | 0.00 | 0.08 | 0.00 | 95 | 1014.7 |
| 20260507111539 | 11 | 96 | 1.6 | 3.2 | 0.00 | 0.08 | 0.00 | 95 | 1014.9 |
| 20260507110041 | 12 | 0 | 1.6 | 3.2 | 0.00 | 0.08 | 0.00 | 95 | 1014.9 |
| 20260507104546 | 12 | 97 | 1.6 | 4.8 | 0.00 | 0.08 | 0.00 | 95 | 1015.0 |
| 20260507103043 | 11 | 97 | 0.0 | 3.2 | 0.00 | 0.08 | 0.00 | 95 | 1015.1 |
| 20260507101542 | 12 | 97 | 3.2 | 4.8 | 0.00 | 0.08 | 0.00 | 95 | 1015.1 |
| 20260507100052 | 12 | 97 | 1.6 | 4.8 | 0.00 | 0.08 | 0.00 | 95 | 1015.2 |
| 20260507094541 | 12 | 97 | 1.6 | 4.8 | 0.00 | 0.08 | 0.00 | 95 | 1015.2 |
| 20260507093041 | 12 | 97 | 1.6 | 3.2 | 0.00 | 0.08 | 0.00 | 95 | 1015.4 |
| 20260507091548 | 12 | 97 | 1.6 | 3.2 | 0.00 | 0.08 | 0.00 | 95 | 1015.4 |
| 20260507090042 | 12 | 0 | 1.6 | 3.2 | 0.00 | 0.08 | 0.00 | 95 | 1015.5 |
| 20260507084551 | 12 | 96 | 3.2 | 4.8 | 0.00 | 0.08 | 0.00 | 95 | 1015.6 |
| 20260507083039 | 12 | 101 | 1.6 | 4.8 | 0.00 | 0.08 | 0.00 | 94 | 1015.7 |
| 20260507081539 | 12 | 91 | 1.6 | 4.8 | 0.00 | 0.08 | 0.00 | 94 | 1015.6 |
| 20260507080035 | 12 | 91 | 1.6 | 4.8 | 0.00 | 0.08 | 0.00 | 94 | 1015.9 |
| 20260507074545 | 12 | 91 | 1.6 | 4.8 | 0.00 | 0.10 | 0.00 | 94 | 1016.0 |
| 20260507073040 | 12 | 83 | 1.6 | 4.8 | 0.00 | 0.10 | 0.00 | 94 | 1016.0 |
| 20260507071544 | 12 | 83 | 3.2 | 4.8 | 0.00 | 0.10 | 0.00 | 94 | 1016.2 |
| 20260507070054 | 12 | 83 | 1.6 | 4.8 | 0.00 | 0.10 | 0.00 | 93 | 1016.2 |
| 20260507064544 | 12 | 83 | 1.6 | 3.2 | 0.00 | 0.10 | 0.10 | 94 | 1016.2 |
| 20260507063041 | 12 | 70 | 1.6 | 3.2 | 0.00 | 0.10 | 0.10 | 93 | 1016.3 |
| 20260507061542 | 12 | 70 | 1.6 | 3.2 | 0.00 | 0.10 | 0.10 | 93 | 1016.2 |
| 20260507060043 | 13 | 70 | 1.6 | 3.2 | 0.00 | 0.10 | 0.10 | 93 | 1016.3 |
| 20260507054542 | 13 | 332 | 1.6 | 3.2 | 0.00 | 0.10 | 0.10 | 92 | 1016.3 |
| 20260507053038 | 13 | 332 | 0.0 | 3.2 | 0.00 | 0.10 | 0.10 | 92 | 1016.3 |
| 20260507051541 | 13 | 0 | 0.0 | 0.0 | 0.00 | 0.10 | 0.10 | 92 | 1016.3 |
| 20260507044550 | 13 | 0 | 0.0 | 0.0 | 0.00 | 0.13 | 0.10 | 91 | 1016.1 |
| 20260507043037 | 14 | 0 | 0.0 | 0.0 | 0.00 | 0.13 | 0.10 | 91 | 1016.1 |
| 20260507041544 | 14 | 0 | 0.0 | 0.0 | 0.00 | 0.13 | 0.10 | 90 | 1016.1 |
| 20260507040047 | 14 | 0 | 0.0 | 0.0 | 0.00 | 0.13 | 0.10 | 89 | 1016.0 |
| 20260507034542 | 15 | 0 | 0.0 | 0.0 | 0.00 | 0.13 | 0.10 | 88 | 1015.8 |
| 20260507033045 | 15 | 0 | 0.0 | 1.6 | 0.00 | 0.13 | 0.10 | 88 | 1015.8 |
| 20260507031539 | 15 | 0 | 0.0 | 1.6 | 0.00 | 0.13 | 0.10 | 87 | 1015.7 |
| 20260507030042 | 16 | 0 | 0.0 | 3.2 | 0.00 | 0.13 | 0.10 | 85 | 1015.5 |
| 20260507024543 | 16 | 0 | 0.0 | 6.4 | 0.00 | 0.13 | 0.10 | 84 | 1015.3 |
| 20260507023040 | 16 | 0 | 0.0 | 4.8 | 0.00 | 0.13 | 0.10 | 82 | 1015.3 |
| 20260507021553 | 17 | 244 | 0.0 | 6.4 | 0.00 | 0.13 | 0.10 | 80 | 1015.2 |
| 20260507020039 | 17 | 279 | 1.6 | 11.3 | 0.00 | 0.13 | 0.10 | 77 | 1015.2 |
| 20260507014536 | 18 | 0 | 0.0 | 6.4 | 0.00 | 0.15 | 0.10 | 75 | 1015.1 |
| 20260507013039 | 18 | 297 | 3.2 | 8.0 | 0.00 | 0.15 | 0.10 | 71 | 1015.1 |
| 20260507011540 | 18 | 306 | 3.2 | 9.7 | 0.00 | 0.15 | 0.10 | 70 | 1015.1 |
| 20260507010044 | 18 | 278 | 0.0 | 12.9 | 0.00 | 0.15 | 0.10 | 71 | 1015.1 |
| 20260507004539 | 19 | 0 | 1.6 | 12.9 | 0.00 | 0.15 | 0.10 | 72 | 1015.1 |
| 20260507003040 | 20 | 254 | 3.2 | 12.9 | 0.00 | 0.15 | 0.10 | 72 | 1015.1 |
| 20260507001540 | 20 | 341 | 3.2 | 12.9 | 0.00 | 0.15 | 0.10 | 71 | 1015.0 |
| 20260507000040 | 20 | 238 | 1.6 | 11.3 | 0.00 | 0.15 | 0.10 | 68 | 1014.9 |
| 20260506234549 | 20 | 239 | 4.8 | 12.9 | 0.03 | 0.18 | 0.10 | 67 | 1014.8 |
| 20260506233041 | 21 | 239 | 3.2 | 14.5 | 0.03 | 0.18 | 0.10 | 65 | 1014.7 |
| 20260506231539 | 21 | 276 | 3.2 | 12.9 | 0.03 | 0.18 | 0.10 | 66 | 1014.9 |
| 20260506230037 | 20 | 263 | 4.8 | 17.7 | 0.03 | 0.18 | 0.10 | 67 | 1015.0 |
| 20260506224547 | 21 | 0 | 1.6 | 11.3 | 0.00 | 0.18 | 0.08 | 68 | 1015.1 |
| 20260506223040 | 21 | 120 | 3.2 | 14.5 | 0.00 | 0.18 | 0.08 | 66 | 1015.3 |
| 20260506221536 | 21 | 0 | 1.6 | 11.3 | 0.00 | 0.18 | 0.08 | 67 | 1015.3 |
| 20260506220042 | 21 | 230 | 8.0 | 20.9 | 0.00 | 0.18 | 0.08 | 66 | 1015.4 |
| 20260506214542 | 21 | 226 | 3.2 | 17.7 | 0.00 | 0.20 | 0.08 | 67 | 1015.6 |
| 20260506213039 | 21 | 236 | 3.2 | 22.5 | 0.00 | 0.20 | 0.08 | 64 | 1015.7 |
| 20260506211538 | 21 | 281 | 3.2 | 12.9 | 0.00 | 0.20 | 0.08 | 64 | 1015.8 |
| 20260506210043 | 21 | 241 | 6.4 | 16.1 | 0.00 | 0.20 | 0.08 | 66 | 1015.9 |
| 20260506204551 | 20 | 258 | 3.2 | 16.1 | 0.00 | 0.23 | 0.08 | 66 | 1015.9 |
| 20260506203040 | 21 | 252 | 6.4 | 19.3 | 0.00 | 0.23 | 0.08 | 64 | 1016.2 |
| 20260506201541 | 20 | 263 | 4.8 | 19.3 | 0.00 | 0.23 | 0.08 | 69 | 1016.2 |
| 20260506200046 | 21 | 259 | 4.8 | 16.1 | 0.00 | 0.23 | 0.08 | 66 | 1016.2 |
| 20260506194548 | 20 | 300 | 9.7 | 22.5 | 0.00 | 0.25 | 0.08 | 65 | 1016.4 |
| 20260506193039 | 21 | 257 | 4.8 | 16.1 | 0.00 | 0.25 | 0.08 | 65 | 1016.5 |
| 20260506191539 | 21 | 271 | 3.2 | 16.1 | 0.00 | 0.25 | 0.08 | 66 | 1016.6 |
| 20260506190040 | 21 | 280 | 4.8 | 16.1 | 0.00 | 0.25 | 0.08 | 65 | 1016.5 |
| 20260506184544 | 20 | 309 | 6.4 | 19.3 | 0.00 | 0.30 | 0.08 | 65 | 1016.6 |
| 20260506183054 | 20 | 247 | 4.8 | 11.3 | 0.00 | 0.30 | 0.08 | 65 | 1016.8 |
| 20260506181547 | 21 | 281 | 3.2 | 14.5 | 0.00 | 0.30 | 0.08 | 66 | 1017.0 |
| 20260506180036 | 20 | 301 | 1.6 | 8.0 | 0.00 | 0.30 | 0.08 | 65 | 1017.1 |
| 20260506174539 | 20 | 240 | 3.2 | 14.5 | 0.03 | 0.33 | 0.08 | 66 | 1017.3 |
| 20260506173035 | 20 | 275 | 1.6 | 12.9 | 0.03 | 0.33 | 0.08 | 67 | 1017.3 |
| 20260506171546 | 18 | 231 | 3.2 | 9.7 | 0.03 | 0.33 | 0.08 | 68 | 1017.4 |
| 20260506170045 | 18 | 317 | 0.0 | 3.2 | 0.03 | 0.33 | 0.08 | 71 | 1017.2 |
| 20260506164546 | 17 | 0 | 0.0 | 8.0 | 0.00 | 0.36 | 0.05 | 71 | 1017.5 |
| 20260506163037 | 17 | 0 | 0.0 | 6.4 | 0.00 | 0.36 | 0.05 | 72 | 1017.2 |
| 20260506161545 | 17 | 34 | 0.0 | 4.8 | 0.00 | 0.36 | 0.05 | 75 | 1017.4 |